STARLINK-31912, 59656

Orbit data source: Space-Track

STARLINK-31912, 59656 is a payload satellite owned by SpaceX/Seattle (US) in LEO that was launched on Mon, 06 May 2024 UTC via an FALCON 9 launch vehicle from the Air Force Eastern Test Range (AFETR). Payload-class satellites include a variety of spacecraft equipped with specific instruments for various scientific and technological missions. These include communications satellites like Starlink; space stations such as the ISS; scientific satellites like the Hubble; Earth observation satellites from companies like Planet Labs, Umbra, and HawkEye 360; GPS; miniature CubeSats for education and research; and military/defense satellites.

Loading next visibility...
Identifier
59656, 2024-084C
Orbit
LEO
Country
Flag of USUS
Related business
Manufacturer
SpaceX/Seattle
Mission
Operational spacecraft
Bus & Motor
STARLINK V2M, Unknown motor
Mass
730 kg wet, ~700 kg dry
Launch date (UTC)
2024-05-06 (1 year ago)
Launch vehicle
FALCON 9
Launch site
Air Force Eastern Test Range (AFETR)
Object type
Payload
Rocket body
Debris
Shape & HBR
Unknown
Radar Cross Section
Large (>1 m²)

Expand to show TLE details & history
Last TLE update: 15 hours ago

TLE from 15 hours ago
0 STARLINK-31912
1 59656U 24084C   25241.92988260  .00009042  00000-0  33783-3 0  9999
2 59656  43.0007  44.9557 0000511 262.5922  97.4872 15.27565420 75046
Epoch: 2025-08-29T22:19Z
TLE epoch observation values (Epoch: 2025-08-29T22:19:01.856Z)
Latitude
Longitude
91.8265°
Altitude
482.914 km
Speed
7.626 km/s
True Right ascension
02h 59m 49s
True Declination
0° 00' 00"
Sunlit
Object was in full shadow at epoch
Visualization orbit readout
Latitude
Unknown
Longitude
Unknown
Altitude
Unknown
Speed
Unknown
Apparent Right ascension
Unknown
Apparent Declination
Unknown
Sunlit
N/A
Visualization observer readout
Local Sidereal Time
05:22:31
Azimuth
Unknown
Elevation
Unknown
Doppler factor
Unknown
Orbital elements
Apogee altitude
485.389 km
Perigee altitude
484.687 km
Semi-major axis
6,863.175 km
Eccentricity
0.00005
Inclination
43.0007°
RAAN
44.9557°
Arg. of periapsis
262.5922°
True anomaly
97.49301°
Mean anomaly
97.4872°
Eccentric anomaly
97.4901°
Mean motion
3.81729 °/min
Orbital period
94.31 mins
BSTAR
0.00033783
Loading maneuver chart data...
Computing Atmospheric mass density...
Loading historical data...
Loading historical data...
Loading historical data...
Loading historical data...
Loading historical data...
Loading historical data...
Loading historical data...

Documentation

Showing up to 5 results
|